Location: Newark
(44.1667°N, 8.2500°E)
Time: 19:30:19
(UTC+00:00)

S-56A Canister/Altair - Pass Details

Date: 11 December 2019
Orbit: 634 x 2498 km, 38.9° (Epoch: 24 January)

Event Time Altitude Azimuth Distance (km) Brightness Sun altitude
Rises 13:30:28 0° 277° (W) 6,159 12.5 16.5°
Reaches altitude 10° 13:34:34 10° 274° (W) 5,165 12.2 16.1°
Maximum altitude 13:49:11 61° 200° (SSW) 2,499 10.9 14.7°
Drops below altitude 10° 14:00:40 10° 125° (SE) 4,138 11.3 13.5°
Sets 14:03:34 0° 121° (ESE) 4,905 11.6 13.1°
